Welcome to the New NWS' Forecast!
Most changes are behind the scenes, but click here for differences you might notice.
Latest weather observations around

Clayton Lake (K40B)

Using English Units (Switch to International System of Units)
Date/ Time (EDT) Wind (mph) Vis. (mi) Weather Sky Cond. Temp (°F) Rel. Humidity Wind Chill (°F) Heat Index (°F) Pressure Precip. (in)
Air Dwpt 6 hour Altimeter (inHg) Sea level (inHg) 1 hr 3 hr 6 hr
Max Min
Aug 15 23:16 Calm   Clear   60 54     81%       29.86      
Aug 15 22:16 Calm   Clear   63 57     78%       29.86      
Aug 15 21:16 2   Clear   66 60     81%       29.83      
Aug 15 20:16 Calm   Clear   69 59     70%       29.79      
Aug 15 19:16 Calm   Clear   72 61     68%   72   29.78      
Aug 15 18:16 2   Clear   73 62     68%   73   29.78      
Aug 15 17:16 3   Clear   74 63     68%   75   29.76      
Aug 15 16:16 3   Clear   78 59     52%   78   29.74      
Aug 15 15:16 3   Clear   77 65     68%   77   29.75      
Aug 15 14:16 Calm   Clear   69 66     91%       29.77 0   0
Aug 15 13:16 7   Clear   78 63     61%   79   29.75      
Aug 15 12:16 3   Clear   80 69     68%   83   29.76      
Aug 15 11:16 3   Clear   74 67     81%   75   29.78      
Aug 15 10:16 2   Clear   72 70     92%   74   29.77      
Aug 15 09:17 2   Clear   71 70     95%   73   29.78      
Aug 15 08:21 Calm   Clear   69 69     100%       29.77 0   0
Notice The following observation data may not be complete
Aug 15 07:16 SSW 11   Clear            %       29.77      
Notice The following observation data may not be complete
Aug 15 06:16 Calm   Clear            %       29.76 0    
Notice The following observation data may not be complete
Aug 15 05:16 Calm   Clear            %       29.76 0 0  
Notice The following observation data may not be complete
Aug 15 04:16 Calm   Clear            %       29.76      
Notice The following observation data may not be complete
Aug 15 03:16 Calm   Clear            %       29.75 0    
Aug 15 02:16 Calm   Clear   67 67     99%       29.76 0   0
Aug 15 01:16 3   Clear   70 69     96%   72   29.77      
Aug 15 00:16 5   Clear   71 69     95%   72   29.78      
Aug 14 23:16 S 8   Clear   71 69     95%   72   29.78      
Aug 14 22:16 S 9   Clear   71 66     85%   71   29.78      
Aug 14 21:16 7   Clear   71 66     83%   72   29.78      
Aug 14 20:16 7   Clear   73 66     78%   74   29.78      
Aug 14 19:16 S 8   Clear   76 66     71%   76   29.78      
Aug 14 18:16 S 10   Clear   78 65     64%   79   29.79      
Aug 14 17:16 S 9   Clear   79 66     65%   79   29.8      
Aug 14 16:16 S 9   Clear   79 64     61%   80   29.81      
Aug 14 15:16 S 11   Clear   80 64     59%   82   29.83      
Aug 14 14:16 7   Clear   81 63     54%   82   29.85      
Aug 14 13:16 S 10   Clear   81 66     61%   83   29.87      
Aug 14 12:16 S 8   Clear   78 66     66%   78   29.9      
Aug 14 11:16 3   Clear   76 66     71%   77   29.92      
Aug 14 10:16 3   Clear   75 65     73%   75   29.93      
Aug 14 09:16 2   Clear   72 67     85%   73   29.94      
Aug 14 08:16 Calm   Clear   68 67     99%       29.95 0   0
Notice The following observation data may not be complete
Aug 14 07:16 2   Clear            %       29.95      
Notice The following observation data may not be complete
Aug 14 06:16     Clear            %              
Notice The following observation data may not be complete
Aug 14 05:16 Calm   Clear            %       29.94      
Notice The following observation data may not be complete
Aug 14 04:16 Calm   Clear            %       29.95      
Notice The following observation data may not be complete
Aug 14 03:16 5   Clear            %       29.95      
Notice The following observation data may not be complete
Aug 14 02:16 Calm   Clear            %       29.96      
Aug 14 01:16 Calm   Clear   66 65     99%       29.97      
Notice The following observation data may not be complete
Aug 13 23:16     Clear            %              
Aug 13 22:16 Calm   Clear   66 60     82%       29.96      
Aug 13 21:16 Calm   Clear   68 60     75%       29.96      
Aug 13 20:16 5   Clear   71 60     70%   71   29.95      
Aug 13 19:16 6   Clear   77 60     55%   77   29.95      
Aug 13 18:16 7   Clear   82 57     42%   82   29.96      
Aug 13 17:16 6   Clear   84 56     38%   83   29.98      
Aug 13 16:16 5   Clear   84 56     39%   83   30.01      
Aug 13 14:16 Calm   Clear   85 57     39%   84   30.05      
Aug 13 13:16 Calm   Clear   82 56     41%   82   30.07      
Aug 13 12:16 3   Clear   79 58     48%   79   30.09      
Aug 13 11:16 5   Clear   80 56     45%   79   30.11      
Aug 13 07:16 Calm   Clear   59 58     97%       30.16 0    
Notice The following observation data may not be complete
Aug 13 04:16 Calm   Clear            %       30.13      
Notice The following observation data may not be complete
Aug 13 03:16 Calm   Clear            %       30.14      
Aug 13 01:16 Calm   Clear   57 57     100%       30.15      
Aug 13 00:16 Calm   Clear   58 58     97%       30.14      
Aug 12 23:16 Calm   Clear   61 56     85%       30.12      
Aug 12 22:16 Calm   Clear   63 57     80%       30.11      
May 15 06:16 WSW 7   Clear   57 41     55%       29.72      
May 14 20:16 Calm   Clear   60 41     50%       29.71      
May 14 15:16 WSW 14   Clear   74 35     24%   72   29.71      
May 14 12:16 SSW 11   Clear   69 35     29%       29.76      
May 13 21:16 S 9   Clear   53 31     44%       29.9      
May 13 19:16 3   Clear   63 24     23%       29.9      
May 13 14:16 SSW 13   Clear   64 25     22%       30.06      
May 12 17:16 5   Clear   56 16     20%       30.03      
May 12 00:16 Calm   Clear   28 22     77%       30.15      
May 11 23:16 Calm   Clear   29 22     74%       30.14      
May 11 10:16 6   Clear   36 20     52% 31     29.94      
Jun 12 02:16 Calm   Clear   57 52     83%       29.86      
Jun 11 23:16 Calm   Clear   64 56     75%       29.8      
Jun 11 18:16 WSW 8   Clear   85 54     35%   84   29.63      
Jun 11 16:16 SW 8   Clear   86 54     34%   84   29.61      
Jun 11 15:16 SW 11   Clear   86 54     34%   84   29.59      
Jun 10 20:17 Calm   Clear   62 47     58%       29.84      
Jun 10 10:16 SSW 9   Clear   59 36     42%       29.92      
Jun 09 17:16 3   Clear   63 57     79%       29.46      
Jun 08 03:16 3   Clear   58 50     75%       29.88      
Jun 08 01:16 3   Clear   56 49     78%       29.88